EHI
0 0 0 0 0 0 0 0 0 0 0 0 0 0 0 0 0 0 0 0 0 0 0 0 0 0 0 0 0 0 0 0 0 0 0 0 0 0
0 0 0 0 0 0 0 0 0 0 0 0 0 0 0 0 0 0 0 0 0 0 0 0 0 0 0 0 0 0 0 0 0 0 0 0 0 0
0 0 0 0 0 0 0 0 0 0 0 0 0 0 0 0 0 0 0 0 0 0 0 0 0 0 0 0 0 0 0 0 0 0 0 0 0 0
0 0 0 0 0 0 0 0 0 0 0 0 0 0 0 0 0 0 0 0 0 0 0 0 0 0 0 0 0 0 0 0 0 0 0 0 0 0
0 0 0 0 0 0 0 0 0 0 0 0 0 0 0 0 0 0 0 0 0 0 0 0 0 0 0 0 0 0 0 0 0 0 0 0 0 0
0 0 0 0 0 0 0 0 0 0 0 0 0 0 0 0 0 0 0 0 0 0 0 0 0 0 0 0 0 0 0 0 0 0 0 0 0 0
0 0 0 0 0 0 0 0 0 0 0 0 0 0 0 0 0 0 0 0 0 0 0 0 0 0 0 0 0 0 0 0 0 0 0 0 0 0
0 0 0 0 0 0 0 0 0 0 0 0 0 0 0 0 0 0 0 0 0 0 0 0 0 0 0 0 0 0 0 0 0 0 0 0 0 0
0 0 0 0 0 0 0 0 0 0 0 0 0 0 0 0 0 0 0 0 0 0 0 0 0 0 0 0 0 0 0 0 0 0 0 0 0 0
0 0 0 0 0 0 0 0 0 0 0 0 0 0 0 0 0 0 0 0 0 0 0 0 0 0 0 0 0 0 0 0 0 0 0 0 0 0
0 0 0 0 0 0 0 0 0 0 0 0 0 0 0 0 0 0 0 0 0 0 0 0 0 0 0 0 0 0 0 0 0 0 0 0 0 0
0 0 0 0 0 0 0 0 0 0 0 0 0 0 0 0 0 0 0 0 0 0 0 0 0 0 0 0 0 0 0 0 0 0 0 0 0 0
0 0 0 0 0 0 0 0 0 0 0 0 0 0 0 0 0 0 0 0 0 0 0 0 0 0 0 0 0 0 0 0 0 0 0 0 0 0
0 0 0 0 0 0 0 0 0 0 0 0 0 0 0 0 0 0 0 0 0 0 0 0 0 0 0 0 0 0 0 0 0 0 0 0 0 0
0 0 0 0 0 0 0 0 0 0 0 0 0 0 0 0 0 0 0 0 0 0 0 0 0 0 0 0 0 0 0 0 0 0 0 0 0 0
0 0 0 0 0 0 0 0 0 0 0 0 0 0 0 0 0 0 0 0 0 0 0 0 0 0 0 0 0 0 0 0 0 0 0 0 0 0
0 0 0 0 0 0 0 0 0 0 0 0 0 0 0 0 0 0 0 0 0 0 0 0 0 0 0 0 0 0 0 0 0 0 0 0 0 0
0 0 0 0 0 0 0 0 0 0 0 0 0 0 0 0 0 0 0 0 0 0 0 0 0 0 0 0 0 0 0 0 0 0 0 0 0 0
0 0 0 0 0 0 0 0 0 0 0 0 0 0 0 0 0 0 0 0 0 0 0 0 0 0 0 0 0 0 0 0 0 0 0 0 0 0
0 0 0 0 0 0 0 0 0 0 0 0 0 0 0 0 0 0 0 0 0 0 0 0 0 0 0 0 0 0 0 0 0 0 0 0 0 0
0 0 0 0 0 0 0 0 0 0 0 0 0 0 0 0 0 0 0 0 0 0 0 0 0 0 0 0 0 0 0 0 0 0 0 0 0 0
0 0 0 0 0 0 0 0 0 0 0 0 0 0 0 0 0 0 0 0 0 0 0 0 0 0 0 0 0 0 0 0 0 0 0 0 0 0
0 0 0 0 0 0 0 0 0 0 0 0 0 0 0 0 0 0 0 0 0 0 0 0 0 0 0 0 0 0 0 0 0 0 0 0 0 0
Wind_Speed
3 3 3 2 2 2 2 2 2 3 4 3 2 2 2 2 4 3 3 6 8 9 9 9 10 10 11 11 11 12 12 12 13 13 14 14 15 15
3 3 3 2 2 2 2 2 3 3 4 2 2 3 3 3 5 4 4 8 8 9 9 10 10 11 11 11 11 12 12 12 13 13 14 14 14 15
3 3 4 3 2 2 2 2 2 2 4 4 2 2 3 3 4 3 3 3 4 8 9 10 10 10 11 11 11 12 12 12 13 13 13 14 14 14
4 4 4 3 3 3 2 3 3 3 3 5 3 2 3 3 3 3 4 4 3 7 9 10 10 10 11 11 12 12 12 12 12 13 13 13 14 14
4 4 4 3 4 3 3 3 3 3 2 3 4 2 2 2 3 4 4 3 4 6 8 9 9 10 11 12 12 12 12 12 12 13 13 13 13 14
4 4 4 4 5 4 4 4 3 3 3 3 3 3 2 2 2 3 4 3 4 5 6 6 8 10 11 12 12 12 11 11 12 12 12 12 12 12
4 4 5 5 6 5 4 3 3 3 2 3 3 3 3 2 2 2 4 4 4 3 3 4 4 4 6 9 10 11 11 11 11 11 11 11 11 11
4 4 4 5 6 7 7 6 5 4 3 3 3 3 4 3 3 3 3 4 4 2 2 4 3 4 4 4 8 10 10 10 10 10 10 10 10 10
4 3 3 3 4 3 5 6 5 6 6 4 4 4 4 4 3 4 4 4 5 3 3 4 3 4 4 5 10 10 9 9 10 10 9 9 10 10
4 4 4 3 3 3 3 2 2 3 5 4 4 4 4 4 4 4 4 4 5 4 2 3 3 3 4 4 8 9 9 10 10 10 10 10 9 9
3 3 3 3 5 5 3 2 2 3 4 5 5 5 6 6 5 2 2 3 4 3 2 2 3 4 4 3 5 8 9 10 10 10 10 9 8 8
2 3 4 4 5 5 3 2 3 3 2 2 2 4 3 4 5 3 3 3 3 3 2 2 2 2 3 3 2 3 5 8 10 10 10 9 8 4
2 2 3 5 5 5 4 2 4 3 1 1 1 2 2 2 2 2 2 3 3 4 2 2 2 2 2 4 3 3 3 3 4 6 8 9 8 5
3 2 2 4 4 4 3 3 3 2 0 1 1 1 2 2 2 2 2 2 3 4 4 3 2 3 3 4 4 3 3 3 3 3 3 6 7 7
2 3 3 3 3 2 2 3 1 0 1 1 1 2 2 2 2 2 2 2 3 3 3 3 3 3 3 3 3 3 4 3 2 2 3 3 3 3
1 2 2 1 1 2 2 1 1 1 1 1 1 2 2 2 1 2 2 2 2 3 3 3 3 2 2 3 3 3 3 3 3 3 3 3 3 2
2 1 1 1 1 0 0 0 0 0 1 1 1 1 1 1 1 1 2 2 2 3 3 3 2 2 2 3 3 3 3 3 3 3 3 3 3 3
1 1 1 1 1 1 1 1 1 1 1 1 1 1 1 2 2 2 2 2 2 2 3 3 3 3 2 2 2 3 3 3 3 3 2 2 3 3
1 1 1 1 1 1 1 1 1 1 1 1 1 1 1 2 2 2 2 2 2 2 3 2 2 2 2 4 3 2 2 3 3 2 2 1 3 3
1 1 1 1 1 1 1 1 1 1 1 1 1 1 1 2 2 2 2 2 2 3 3 2 2 2 2 3 3 4 4 2 2 2 2 2 2 3
0 0 1 1 1 1 1 1 1 1 1 1 1 1 1 2 2 2 2 3 3 2 3 3 3 4 2 2 2 3 3 3 2 2 2 2 2 2
0 1 1 1 1 1 1 1 1 1 1 1 2 2 2 2 2 2 2 2 2 2 3 3 3 2 1 1 2 3 4 4 4 6 4 2 1 1
1 1 1 1 1 1 1 1 2 1 1 2 2 2 2 2 2 2 2 2 2 2 2 2 2 2 2 2 2 2 3 3 3 3 4 5 4 3
Wind_Direction
224 225 232 240 237 232 227 217 226 270 276 259 266 270 288 295 299 303 294 299 307 310 309 311 312 309 308 308 309 309 307 308 309 308 307 307 305 304
219 219 233 241 245 238 231 235 232 241 266 264 260 280 290 294 301 304 295 303 302 306 311 313 313 313 312 310 310 310 309 309 310 308 307 305 305 305
228 223 236 234 233 239 236 234 239 235 260 280 276 284 277 284 302 302 297 293 291 301 307 312 315 316 314 315 316 313 311 311 311 310 308 306 304 303
230 230 237 234 233 236 230 231 235 235 242 271 287 286 278 276 286 295 302 300 292 298 306 309 310 313 314 313 313 311 310 310 310 309 309 310 309 306
226 228 232 225 234 238 236 231 236 246 242 255 278 282 286 295 303 297 294 292 296 299 304 306 308 311 313 313 312 311 310 308 307 307 308 308 309 308
231 229 229 225 228 231 232 227 231 238 241 248 267 281 286 291 292 291 301 300 301 304 304 305 307 311 313 313 313 311 308 306 305 305 306 308 308 308
236 231 230 236 242 240 237 222 221 228 238 248 257 276 278 281 278 284 295 302 297 290 298 301 304 303 307 310 312 311 310 310 310 309 308 309 309 309
234 235 236 238 245 255 260 253 239 228 230 240 256 256 268 270 275 279 293 297 295 291 302 300 302 301 303 301 313 314 313 315 315 315 316 314 312 311
227 231 242 246 256 244 257 264 263 259 249 239 239 249 255 255 259 274 280 285 277 280 293 288 289 290 295 305 315 318 320 322 322 320 318 317 315 314
225 220 225 232 241 245 239 247 250 261 258 253 240 248 253 250 242 256 265 280 281 275 253 268 281 282 296 296 310 316 325 324 321 320 319 318 316 313
234 225 227 228 245 257 249 245 261 271 273 267 266 269 271 274 273 262 269 282 291 284 253 249 273 289 287 285 299 315 322 327 327 324 324 326 325 322
232 231 242 252 252 256 237 224 248 266 273 294 300 302 296 288 292 270 251 263 279 279 264 260 276 300 301 287 292 308 314 322 329 330 329 329 328 320
227 228 236 253 259 267 269 240 250 267 245 252 276 291 297 295 295 286 259 245 258 264 267 270 279 275 269 294 298 295 302 307 316 321 327 330 329 324
222 227 232 250 260 272 279 274 281 292 224 241 264 279 290 297 298 297 293 282 264 261 265 260 262 269 279 287 290 299 301 303 310 313 312 324 326 327
220 233 243 257 273 275 279 289 292 243 215 237 263 279 284 280 288 301 312 313 314 299 283 272 266 272 270 273 280 287 300 305 305 306 312 315 311 313
215 213 240 289 315 311 309 308 295 246 238 242 262 274 283 285 291 300 304 313 317 317 316 305 286 277 281 286 276 285 292 294 306 310 310 310 310 306
169 154 160 173 213 260 297 310 300 275 275 262 257 267 278 290 302 309 302 306 298 300 315 324 316 295 268 275 281 285 290 292 295 305 312 313 311 313
142 155 189 205 212 229 249 271 280 270 269 263 266 266 274 287 303 312 310 296 294 299 304 311 321 326 323 300 273 277 284 287 298 305 304 304 315 326
148 177 208 226 240 239 243 264 282 282 271 257 268 271 273 284 289 297 304 303 299 298 300 304 310 310 313 314 309 296 282 298 305 307 306 293 300 313
164 190 219 242 253 254 256 271 285 287 279 272 272 270 272 272 275 281 290 295 296 299 304 307 301 292 275 282 290 304 317 300 303 313 319 322 314 318
210 233 243 248 260 265 269 268 269 270 275 274 270 273 272 271 274 279 283 285 293 296 299 299 294 299 286 291 298 316 328 338 337 320 320 327 339 3
237 245 256 250 250 264 271 268 265 264 271 277 270 268 268 263 265 270 276 280 288 291 291 299 312 322 326 317 310 317 331 342 356 6 12 21 23 3
258 252 256 255 254 261 261 261 263 264 262 264 264 263 265 269 269 269 275 280 285 293 303 315 329 333 326 317 315 327 341 346 355 13 20 20 30 24